Wind_Speed
29 29 30 30 29 30 34 34 34 37 33 38 37 39 38 36 32 20 19 23 18 7 11 6 8 9 7 9 18 23 24 30 39 41 43 48 49 47 46 45 40 38 37 38
31 33 31 29 29 30 30 32 37 33 27 34 35 38 29 12 24 15 7 11 4 7 8 10 12 12 18 18 19 21 24 24 26 30 35 39 44 48 45 45 43 41 41 42
37 32 30 31 28 26 30 30 28 27 30 34 31 28 18 22 6 15 14 4 6 4 8 14 20 25 27 34 27 28 23 25 26 24 26 32 35 43 44 45 45 45 45 45
28 25 16 15 18 19 26 25 23 27 27 20 28 17 22 7 11 2 7 5 4 12 24 30 34 34 39 36 25 23 21 22 26 27 26 25 30 36 41 43 45 47 49 49
17 18 24 25 25 31 29 22 26 32 29 29 18 14 10 13 5 16 5 10 17 31 43 37 31 33 34 31 31 29 22 21 25 29 30 29 31 33 38 40 42 44 47 49
24 31 34 34 31 29 27 29 30 24 18 11 16 10 8 5 12 14 17 19 28 40 45 30 27 28 35 30 26 24 21 21 26 30 31 33 32 32 33 36 38 42 44 45
29 32 31 27 29 31 29 31 12 8 7 13 15 17 20 13 24 30 29 34 44 47 27 24 27 28 28 28 27 26 23 21 22 25 23 24 27 28 30 34 37 39 40 42
19 28 21 24 24 22 20 17 12 8 15 20 23 16 23 17 22 26 33 40 28 20 21 26 29 28 29 31 33 31 25 21 20 18 16 16 18 19 23 28 32 36 37 39
22 27 21 21 18 14 18 21 25 25 31 15 34 40 42 34 34 32 25 19 24 27 27 28 34 34 32 35 36 36 34 30 30 31 28 23 25 21 20 21 26 32 35 38
22 18 26 20 25 28 26 23 19 18 8 20 24 32 28 24 30 35 37 31 30 28 24 26 30 37 40 39 36 36 37 34 33 33 36 37 40 37 34 32 34 29 27 33
21 24 36 23 27 33 29 27 23 23 23 7 10 21 33 37 36 34 33 32 35 34 35 41 43 40 41 42 43 43 42 45 46 45 44 44 43 47 46 44 42 36 32 30
28 24 28 39 32 27 22 28 30 24 17 29 31 34 33 28 34 41 47 44 28 34 37 39 42 46 45 47 49 48 48 47 47 46 52 52 49 47 49 49 45 39 36 35
20 12 12 20 29 28 26 27 33 30 28 29 15 6 18 29 35 36 45 44 42 50 58 53 51 48 47 43 41 42 40 41 42 44 45 50 52 51 50 48 44 40 40 42
27 35 33 32 34 25 23 24 22 24 22 28 35 42 41 38 35 37 38 47 56 59 56 55 50 42 38 36 34 33 33 34 35 36 39 40 43 48 47 45 47 50 49 45
26 35 37 37 39 39 40 40 42 37 41 34 43 41 52 52 48 51 54 55 55 51 50 49 46 44 42 41 40 40 39 41 42 43 43 43 46 48 51 49 48 45 46 48
32 36 36 48 49 40 37 42 49 43 45 41 43 44 41 41 44 46 45 45 43 43 41 41 42 44 44 45 49 50 51 52 54 55 53 54 54 50 50 53 53 52 50 54
33 33 29 36 29 28 24 40 40 42 44 48 45 45 38 38 37 36 35 33 34 35 35 38 41 44 49 50 50 51 51 52 53 54 53 53 51 53 58 56 54 52 51 49
38 35 33 35 29 21 39 35 36 42 46 44 38 34 26 23 24 25 23 28 32 35 39 42 44 47 48 51 51 51 51 51 52 55 56 56 56 55 52 54 56 58 58 56
35 40 31 27 32 38 39 40 41 38 37 30 24 18 14 18 25 29 27 32 34 36 39 41 43 45 46 47 50 53 55 57 58 58 60 62 61 61 58 55 54 56 57 56
19 22 27 19 11 13 25 27 27 23 20 19 16 13 19 31 32 33 33 34 35 36 38 41 42 43 43 48 53 59 61 60 61 62 63 64 64 64 64 62 59 56 57 59
17 20 24 28 25 22 24 26 24 13 18 8 21 30 34 29 32 37 34 33 34 35 38 42 45 47 50 54 59 60 59 61 64 68 69 70 72 74 74 73 71 68 65 62
14 12 18 15 14 14 19 21 19 18 18 36 37 32 33 32 34 31 34 36 37 39 40 43 48 51 53 54 56 59 61 65 70 74 78 79 80 80 81 80 77 75 73 72
20 29 19 21 17 25 27 28 35 40 43 35 30 29 29 31 32 35 36 37 38 40 43 47 51 53 53 55 60 66 69 74 78 80 81 83 86 87 88 87 85 84 79 76
37 34 37 30 35 37 37 37 32 26 25 26 26 30 31 33 34 37 37 38 40 42 45 49 51 53 57 61 67 73 76 79 83 85 84 86 88 88 86 85 83 81 77 73
38 29 32 37 42 39 34 27 25 27 29 32 34 34 34 34 35 36 37 39 41 43 45 48 52 58 64 69 72 75 78 79 83 89 93 89 84 81 81 80 80 79 75 69
39 39 39 41 34 35 39 34 31 36 37 34 34 37 34 33 33 36 39 40 41 44 46 49 56 62 67 67 73 72 78 85 87 77 69 65 62 61 62 64 66 64 66 65
Wind_Direction
275 268 270 282 287 287 286 288 289 296 304 299 299 305 312 315 315 321 314 304 293 269 261 255 246 242 255 306 295 286 284 272 266 263 260 256 254 253 253 258 261 262 260 261
271 269 286 280 277 281 284 284 291 298 309 304 307 307 324 341 326 319 322 310 214 208 252 266 262 283 290 304 302 291 283 282 276 272 266 262 252 248 250 253 254 256 258 257
276 278 278 278 282 288 288 287 298 300 306 305 306 310 313 327 10 316 281 187 196 247 291 301 305 309 310 311 314 300 283 270 273 271 264 262 258 249 248 249 249 251 255 257
278 289 282 273 285 293 284 298 295 301 307 301 309 304 310 330 291 276 105 168 301 322 322 314 314 311 309 311 311 303 301 277 264 265 261 254 250 248 246 248 251 252 253 255
273 284 286 290 301 305 291 283 291 297 299 301 304 281 315 322 183 173 275 284 301 321 324 313 304 304 305 301 293 305 303 282 265 262 261 255 247 243 242 243 246 249 249 250
290 291 283 285 292 287 279 284 294 296 293 273 293 252 317 317 157 203 279 287 301 306 311 301 302 296 287 283 297 305 301 282 270 264 259 253 249 246 245 244 245 245 248 248
291 284 280 282 281 275 268 276 285 264 250 267 290 271 266 272 261 267 271 281 293 302 285 278 281 276 272 284 295 299 300 297 285 272 265 257 251 251 250 249 250 249 247 246
279 284 273 273 268 263 262 239 234 273 274 283 287 266 278 275 269 269 276 287 276 265 282 288 279 267 278 290 294 299 297 295 288 277 273 279 278 270 269 265 259 256 252 247
289 274 282 265 250 251 255 246 265 262 266 278 267 266 272 270 272 277 277 265 271 280 282 277 276 289 302 303 300 299 301 302 296 288 284 283 289 287 293 297 294 272 259 249
264 285 283 277 271 269 263 273 266 253 258 254 254 260 254 273 269 277 284 278 281 285 278 281 285 298 303 302 298 296 297 297 295 294 294 286 284 285 284 292 298 289 279 265
275 268 276 270 268 277 271 260 248 255 250 263 262 252 266 273 272 275 276 281 287 290 294 297 297 298 300 298 295 292 287 287 292 291 286 284 284 287 287 287 295 288 279 275
274 268 263 270 268 264 252 257 253 248 253 248 265 266 256 251 276 279 285 285 284 301 302 296 295 299 298 297 296 295 292 290 288 287 286 287 288 284 283 288 287 283 278 274
279 259 279 278 280 272 266 268 262 256 252 250 256 248 264 282 277 270 273 278 293 298 303 301 298 297 298 296 295 295 295 292 289 285 279 280 283 288 284 284 282 278 280 279
273 264 257 261 264 275 271 266 255 261 263 268 263 274 280 280 272 267 268 282 291 296 296 295 298 299 299 300 297 294 293 293 293 293 294 293 289 291 288 281 278 280 281 276
271 266 270 272 272 275 273 278 274 266 270 267 275 272 271 276 270 275 277 280 283 285 286 290 294 299 300 300 301 302 301 298 296 294 292 289 286 287 289 287 286 282 279 277
272 273 275 276 277 278 273 274 275 273 272 269 273 275 285 278 279 278 277 279 278 279 280 282 289 294 299 303 306 306 306 306 304 301 297 293 292 291 291 288 288 287 283 277
271 272 273 273 277 282 273 268 275 276 272 273 273 278 273 272 273 274 273 275 278 280 281 284 285 288 293 302 306 308 308 308 307 306 305 303 299 292 288 285 280 282 283 281
271 267 269 270 273 254 271 275 272 269 272 274 273 272 268 265 264 268 276 281 288 292 294 295 296 297 299 301 306 307 308 308 307 306 305 304 301 299 295 288 285 281 279 276
267 264 261 260 261 273 274 275 273 272 273 273 274 260 267 286 281 271 287 292 294 298 300 302 304 305 304 305 306 306 306 305 305 304 302 301 300 299 297 293 287 283 279 273
266 265 243 256 258 265 278 280 281 279 270 286 258 253 300 309 301 292 300 299 297 297 298 301 302 301 303 306 305 305 304 304 303 301 300 299 299 297 296 294 291 285 280 278
267 260 245 247 254 269 277 277 276 255 279 250 293 294 299 298 294 298 300 298 300 301 302 301 300 300 302 304 303 303 302 302 301 299 298 297 295 294 292 290 288 287 284 279
253 257 251 253 255 270 276 270 254 264 259 296 295 288 292 289 289 293 296 294 296 297 298 298 299 300 302 302 301 300 299 299 297 297 297 296 295 293 291 289 287 285 283 281
253 252 259 257 256 269 281 281 280 283 290 287 285 283 286 289 292 296 296 296 297 299 299 299 301 303 303 303 302 301 300 300 299 297 295 292 290 289 288 286 285 283 282 280
272 273 267 267 278 286 290 288 286 284 279 283 287 290 289 290 292 294 296 297 298 298 300 302 303 304 304 304 303 303 303 301 299 297 295 293 291 288 286 284 283 281 280 277
279 277 275 280 290 302 298 296 290 294 291 288 286 291 296 292 294 295 296 299 301 302 303 305 306 307 308 307 306 306 306 304 301 299 297 295 291 288 285 281 278 275 273 272
285 286 281 281 298 297 297 297 294 284 294 291 288 292 294 293 291 293 299 301 303 307 307 308 309 309 309 308 311 312 308 308 306 304 302 299 296 292 287 284 279 273 270 266
Height
3139 3139 3141 3142 3140 3138 3134 3132 3128 3126 3126 3117 3114 3110 3111 3111 3110 3108 3107 3102 3101 3100 3097 3095 3092 3091 3090 3089 3087 3084 3082 3082 3082 3084 3084 3084 3087 3089 3091 3093 3096 3096 3096 3096
3134 3129 3135 3134 3133 3131 3128 3123 3121 3119 3119 3112 3106 3103 3105 3106 3105 3102 3100 3098 3097 3094 3090 3088 3086 3086 3084 3081 3081 3079 3076 3075 3074 3074 3075 3076 3077 3078 3081 3083 3085 3087 3087 3087
3127 3128 3128 3127 3127 3125 3122 3119 3115 3114 3112 3108 3100 3098 3099 3101 3099 3096 3092 3093 3090 3087 3086 3083 3081 3079 3077 3076 3075 3073 3071 3069 3069 3067 3067 3067 3068 3070 3073 3073 3074 3075 3076 3078
3119 3120 3119 3120 3121 3122 3116 3118 3112 3108 3106 3105 3103 3086 3095 3092 3094 3094 3091 3085 3084 3083 3082 3079 3075 3073 3070 3068 3067 3066 3065 3064 3062 3060 3059 3058 3058 3060 3062 3065 3067 3067 3067 3068
3117 3116 3115 3115 3116 3116 3112 3111 3110 3106 3102 3095 3099 3096 3087 3087 3084 3087 3083 3081 3079 3077 3075 3074 3070 3067 3064 3063 3060 3062 3061 3058 3056 3054 3053 3052 3050 3048 3048 3049 3051 3054 3054 3055
3112 3111 3111 3111 3112 3111 3108 3106 3103 3102 3100 3091 3089 3091 3082 3085 3083 3081 3077 3076 3073 3072 3071 3069 3066 3063 3061 3060 3058 3056 3054 3053 3051 3049 3046 3044 3043 3042 3042 3040 3039 3040 3041 3043
3108 3105 3103 3106 3104 3103 3105 3102 3102 3097 3095 3086 3083 3083 3075 3085 3077 3078 3075 3071 3068 3068 3066 3064 3062 3060 3061 3059 3055 3051 3049 3048 3046 3043 3041 3038 3035 3034 3033 3033 3032 3031 3031 3032
3099 3093 3099 3098 3098 3096 3095 3094 3096 3090 3083 3079 3080 3070 3070 3072 3071 3069 3069 3067 3061 3058 3059 3059 3057 3054 3051 3050 3048 3047 3043 3042 3042 3040 3036 3034 3031 3029 3029 3028 3026 3024 3022 3022
3097 3088 3088 3089 3089 3093 3087 3086 3087 3085 3082 3078 3068 3062 3060 3066 3061 3059 3058 3057 3058 3055 3052 3052 3051 3049 3046 3043 3041 3039 3037 3034 3034 3034 3031 3027 3027 3024 3023 3022 3021 3017 3014 3012
3090 3087 3083 3084 3085 3082 3085 3084 3082 3079 3076 3068 3060 3057 3053 3057 3054 3052 3051 3050 3048 3047 3046 3044 3041 3041 3037 3036 3034 3030 3029 3026 3023 3023 3020 3019 3019 3018 3015 3014 3014 3012 3008 3006
3085 3084 3077 3078 3075 3075 3076 3074 3072 3071 3068 3061 3054 3048 3051 3050 3048 3044 3041 3040 3041 3039 3038 3037 3033 3031 3029 3027 3025 3022 3022 3018 3014 3011 3014 3010 3008 3007 3005 3004 3004 3004 3001 2999
3078 3074 3070 3065 3067 3065 3064 3066 3066 3061 3055 3051 3047 3039 3044 3042 3040 3036 3033 3029 3029 3029 3029 3027 3024 3021 3020 3018 3016 3012 3008 3007 3005 3001 3000 2996 2996 2996 2994 2992 2993 2993 2992 2990
3069 3064 3061 3059 3060 3054 3054 3053 3053 3051 3047 3040 3038 3032 3038 3039 3034 3031 3026 3020 3016 3013 3014 3011 3011 3010 3007 3003 3004 3001 2998 2994 2990 2988 2990 2986 2982 2982 2980 2980 2980 2978 2979 2981
3061 3056 3055 3053 3050 3050 3046 3046 3045 3045 3037 3033 3030 3025 3029 3028 3026 3023 3020 3017 3013 3007 3003 2999 2997 2996 2994 2991 2990 2989 2986 2982 2980 2980 2977 2973 2972 2970 2969 2967 2966 2964 2963 2965
3053 3046 3045 3042 3041 3040 3035 3035 3034 3031 3029 3024 3020 3019 3018 3020 3016 3013 3011 3009 3007 3003 2997 2992 2987 2984 2982 2980 2978 2975 2972 2971 2969 2967 2965 2963 2961 2958 2955 2951 2951 2951 2950 2948
3042 3036 3036 3029 3032 3029 3025 3024 3019 3019 3017 3012 3010 3004 3007 3002 3001 2999 2996 2995 2994 2992 2989 2986 2981 2976 2972 2968 2962 2959 2956 2954 2952 2950 2950 2948 2946 2944 2942 2940 2936 2935 2934 2932
3034 3030 3028 3018 3025 3020 3013 3008 3011 3009 3006 3004 2999 2997 2992 2990 2989 2988 2986 2984 2983 2981 2979 2976 2973 2969 2964 2959 2954 2948 2944 2941 2938 2934 2932 2930 2928 2928 2926 2924 2922 2921 2919 2917
3020 3020 3020 3011 3016 3003 2999 3003 3002 2997 2993 2990 2988 2984 2981 2980 2980 2979 2978 2975 2973 2971 2969 2966 2962 2959 2955 2949 2942 2936 2933 2929 2925 2922 2917 2914 2912 2910 2907 2905 2903 2902 2901 2900
3009 3010 3007 3004 2999 2991 2993 2995 2992 2988 2983 2982 2979 2977 2976 2975 2973 2973 2972 2968 2966 2963 2959 2955 2951 2947 2943 2939 2931 2926 2921 2916 2912 2909 2904 2899 2895 2891 2889 2888 2885 2882 2879 2880
3001 3000 3001 2997 2993 2984 2984 2984 2981 2980 2976 2975 2973 2972 2971 2968 2964 2964 2963 2960 2957 2954 2950 2946 2942 2938 2934 2929 2922 2915 2909 2904 2898 2892 2887 2882 2877 2874 2870 2867 2865 2864 2862 2857
2993 2992 2989 2986 2984 2978 2977 2976 2974 2975 2975 2970 2969 2966 2963 2960 2957 2954 2952 2950 2947 2944 2940 2935 2931 2927 2923 2916 2908 2902 2896 2889 2880 2873 2869 2865 2858 2852 2849 2843 2843 2841 2839 2837
2988 2986 2981 2980 2979 2975 2969 2968 2970 2968 2964 2963 2960 2958 2954 2950 2948 2946 2944 2942 2939 2934 2930 2925 2919 2915 2911 2904 2895 2889 2883 2874 2865 2856 2848 2842 2835 2829 2822 2817 2815 2814 2813 2811
2979 2974 2975 2974 2971 2966 2964 2964 2961 2959 2956 2952 2950 2948 2944 2941 2940 2937 2934 2931 2927 2922 2918 2912 2906 2901 2898 2890 2880 2870 2864 2853 2844 2835 2827 2818 2809 2802 2795 2789 2786 2783 2785 2784
2964 2965 2962 2965 2957 2957 2956 2953 2950 2949 2946 2944 2941 2938 2936 2933 2930 2927 2923 2920 2916 2911 2906 2900 2894 2889 2882 2874 2864 2853 2844 2832 2819 2808 2798 2788 2778 2771 2766 2760 2755 2752 2753 2755
2956 2956 2952 2949 2946 2944 2941 2941 2940 2938 2937 2934 2931 2929 2926 2923 2920 2916 2913 2909 2904 2900 2894 2887 2880 2873 2865 2855 2845 2834 2820 2805 2793 2780 2769 2756 2744 2736 2730 2726 2724 2721 2724 2726
2946 2943 2943 2937 2939 2936 2930 2931 2930 2926 2925 2923 2921 2918 2915 2913 2910 2906 2902 2898 2893 2888 2882 2876 2868 2858 2850 2839 2826 2813 2797 2781 2763 2747 2736 2726 2716 2708 2701 2695 2692 2694 2694 2698